FW9253 Weather Reports


time (UTC)temp
C
wind
direction
speed
KPH
gust
KPH
rain 1hr
cm
rain 24hr
cm
rain mn
cm
humidity
%
barometer
mb
20260508162352 20 0 0.0 0.0 0.00 0.00 0.00 26 1010.6
20260508161452 21 0 0.0 0.0 0.00 0.00 0.00 23 1010.6
20260508160552 22 0 0.0 0.0 0.00 0.00 0.00 9 1011.6
20260508155652 23 0 0.0 0.0 0.00 0.00 0.00 2 1011.6
20260508153851 26 22 0.0 1.6 0.00 0.00 0.00 2 1010.6
20260508152952 27 0 0.0 0.0 0.00 0.00 0.00 2 1010.6
20260508152051 27 0 0.0 0.0 0.00 0.00 0.00 2 1011.6
20260508151152 28 292 0.0 3.2 0.00 0.00 0.00 2 1011.6
20260508150252 28 292 0.0 6.4 0.00 0.00 0.00 2 1011.6
20260508145351 28 0 0.0 0.0 0.00 0.00 0.00 2 1011.6
20260508144451 28 314 0.0 6.4 0.00 0.00 0.00 2 1011.6
20260508143551 27 280 1.6 6.4 0.00 0.00 0.00 2 1011.6
20260508140851 29 319 0.0 9.7 0.00 0.00 0.00 2 1011.6
20260508135951 31 281 0.0 8.0 0.00 0.00 0.00 2 1011.6
20260508135051 31 0 0.0 0.0 0.00 0.00 0.00 2 1012.7
20260508134151 31 0 0.0 0.0 0.00 0.00 0.00 2 1011.6
20260508133251 31 0 0.0 0.0 0.00 0.00 0.00 2 1011.6
20260508132351 31 248 0.0 4.8 0.00 0.00 0.00 2 1010.6
20260508131451 31 158 0.0 1.6 0.00 0.00 0.00 2 1010.6
20260508125651 31 163 0.0 3.2 0.00 0.00 0.00 2 1012.7
20260508124751 31 0 0.0 0.0 0.00 0.00 0.00 2 1012.7
20260508123851 29 0 0.0 0.0 0.00 0.00 0.00 2 1012.7
20260508122951 29 0 0.0 0.0 0.00 0.00 0.00 2 1012.7
20260508122051 30 0 0.0 0.0 0.00 0.00 0.00 2 1012.7
20260508120251 28 0 0.0 0.0 0.00 0.00 0.00 2 1012.7
20260508115351 27 0 0.0 0.0 0.00 0.00 0.00 2 1013.7
20260508114451 27 248 0.0 4.8 0.00 0.00 0.00 2 1013.7
20260508112651 30 150 0.0 16.1 0.00 0.00 0.00 2 1013.7
20260508111750 31 337 0.0 1.6 0.00 0.00 0.00 2 1013.7
20260508110850 33 0 0.0 0.0 0.00 0.00 0.00 2 1013.7
20260508105051 35 0 0.0 0.0 0.00 0.00 0.00 2 1013.7
20260508103250 34 0 0.0 0.0 0.00 0.00 0.00 2 1013.7
20260508102350 34 0 0.0 0.0 0.00 0.00 0.00 2 1014.7
20260508101450 33 0 0.0 0.0 0.00 0.00 0.00 2 1014.7
20260508095650 33 0 0.0 0.0 0.00 0.00 0.00 2 1013.7
20260508093850 33 0 0.0 0.0 0.00 0.00 0.00 2 1012.7
20260508092950 32 0 0.0 0.0 0.00 0.00 0.00 2 1012.7
20260508091150 32 0 0.0 0.0 0.00 0.00 0.00 2 1013.7
20260508090250 32 0 0.0 0.0 0.00 0.00 0.00 2 1013.7
20260508085350 33 0 0.0 0.0 0.00 0.00 0.00 2 1013.7
20260508083550 32 0 0.0 0.0 0.00 0.00 0.00 2 1013.7
20260508082650 32 0 0.0 0.0 0.00 0.00 0.00 2 1014.7
20260508081750 32 0 0.0 0.0 0.00 0.00 0.00 2 1014.7
20260508080850 32 0 0.0 0.0 0.00 0.00 0.00 2 1014.7
20260508075950 32 0 0.0 0.0 0.00 0.00 0.00 2 1014.7
20260508075050 31 0 0.0 0.0 0.00 0.00 0.00 2 1014.7
20260508073250 31 0 0.0 0.0 0.00 0.00 0.00 2 1014.7
20260508072350 31 0 0.0 0.0 0.00 0.00 0.00 2 1014.7
20260508070549 31 0 0.0 0.0 0.00 0.00 0.00 2 1014.7
20260508065650 31 248 0.0 1.6 0.00 0.00 0.00 2 1014.7
20260508064750 31 0 0.0 0.0 0.00 0.00 0.00 2 1014.7
20260508063849 30 0 0.0 0.0 0.00 0.00 0.00 2 1014.7
20260508062949 30 0 0.0 0.0 0.00 0.00 0.00 2 1014.7
20260508062049 30 0 0.0 0.0 0.00 0.00 0.00 2 1014.7
20260508061149 29 0 0.0 0.0 0.00 0.00 0.00 2 1013.7
20260508055349 28 0 0.0 0.0 0.00 0.00 0.00 2 1013.7
20260508052649 27 0 0.0 0.0 0.00 0.00 0.00 21 1013.7
20260508051750 27 0 0.0 0.0 0.00 0.00 0.00 22 1013.7
20260508045950 26 0 0.0 0.0 0.00 0.00 0.00 27 1013.7
20260508045049 25 0 0.0 0.0 0.00 0.00 0.00 31 1013.7
20260508043249 23 0 0.0 0.0 0.00 0.00 0.00 41 1013.7
20260508042349 22 0 0.0 0.0 0.00 0.00 0.00 43 1012.7
20260508035649 20 0 0.0 0.0 0.00 0.00 0.00 52 1011.6
20260508034749 19 0 0.0 0.0 0.00 0.00 0.00 58 1011.6
20260508032049 16 0 0.0 0.0 0.00 0.00 0.00 68 1011.6
20260508031149 15 0 0.0 0.0 0.00 0.00 0.00 70 1011.6
20260508030249 14 0 0.0 0.0 0.00 0.00 0.00 73 1011.6
20260508025348 13 0 0.0 0.0 0.00 0.00 0.00 75 1011.6
20260508024449 13 0 0.0 0.0 0.00 0.00 0.00 78 1011.6
20260508022649 11 0 0.0 0.0 0.00 0.00 0.00 82 1011.6
20260508020848 11 0 0.0 0.0 0.00 0.00 0.00 82 1010.6
20260508015948 11 0 0.0 0.0 0.00 0.00 0.00 81 1010.6
20260508015048 11 0 0.0 0.0 0.00 0.00 0.00 82 1010.6
20260508014148 11 0 0.0 0.0 0.00 0.00 0.00 82 1010.6
20260508013249 11 0 0.0 0.0 0.00 0.00 0.00 82 1010.6
20260508012348 10 0 0.0 0.0 0.00 0.00 0.00 81 1010.6
20260508011448 10 0 0.0 0.0 0.00 0.00 0.00 81 1010.6
20260508010548 11 0 0.0 0.0 0.00 0.00 0.00 81 1011.6
20260508004748 11 0 0.0 0.0 0.00 0.00 0.00 80 1010.6
20260508003848 11 0 0.0 0.0 0.00 0.00 0.00 79 1011.6
20260508002948 11 0 0.0 0.0 0.00 0.00 0.00 79 1011.6
20260508002048 11 0 0.0 0.0 0.00 0.00 0.00 78 1010.6
20260508001148 11 0 0.0 0.0 0.00 0.00 0.00 79 1011.6
20260508000250 11 0 0.0 0.0 0.00 0.00 0.00 78 1011.6
20260507235348 11 0 0.0 0.0 0.00 0.00 0.00 78 1011.6
20260507234448 11 0 0.0 0.0 0.00 0.00 0.00 78 1011.6
20260507233548 11 0 0.0 0.0 0.00 0.00 0.00 78 1011.6
20260507232648 11 0 0.0 0.0 0.00 0.00 0.00 78 1011.6
20260507231748 11 0 0.0 0.0 0.00 0.00 0.00 78 1011.6
20260507225948 11 0 0.0 0.0 0.00 0.00 0.00 78 1011.6
20260507225048 11 0 0.0 0.0 0.00 0.00 0.00 78 1010.6
20260507224148 11 0 0.0 0.0 0.00 0.00 0.00 77 1010.6
20260507223248 11 0 0.0 0.0 0.00 0.00 0.00 76 1010.6
20260507222348 11 0 0.0 0.0 0.00 0.00 0.00 76 1010.6
20260507221448 12 0 0.0 0.0 0.00 0.00 0.00 75 1010.6
20260507215647 12 0 0.0 0.0 0.00 0.00 0.00 74 1011.6
20260507214747 12 0 0.0 0.0 0.00 0.00 0.00 73 1011.6
20260507213847 12 0 0.0 0.0 0.00 0.00 0.00 73 1011.6
20260507212947 12 0 0.0 0.0 0.00 0.00 0.00 73 1011.6
20260507212047 12 0 0.0 0.0 0.00 0.00 0.00 73 1011.6
20260507211147 12 0 0.0 0.0 0.00 0.00 0.00 73 1011.6
20260507205358 12 0 0.0 0.0 0.00 0.00 0.00 72 1011.6
20260507204457 12 0 0.0 0.0 0.00 0.00 0.00 72 1011.6
20260507202657 13 0 0.0 0.0 0.00 0.00 0.00 71 1011.6
20260507201757 13 0 0.0 0.0 0.00 0.00 0.00 71 1011.6
20260507200857 13 0 0.0 0.0 0.00 0.00 0.00 71 1011.6
20260507195957 13 0 0.0 0.0 0.00 0.00 0.00 71 1011.6
20260507193257 13 0 0.0 0.0 0.00 0.00 0.00 71 1011.6
20260507192357 13 0 0.0 0.0 0.00 0.00 0.00 72 1011.6
20260507191457 13 0 0.0 0.0 0.00 0.00 0.00 72 1011.6
20260507185657 13 0 0.0 0.0 0.00 0.00 0.00 71 1011.6
20260507183857 14 0 0.0 0.0 0.00 0.00 0.00 71 1011.6
20260507182957 14 0 0.0 0.0 0.00 0.00 0.00 71 1011.6
20260507182057 14 0 0.0 0.0 0.00 0.00 0.00 70 1011.6
20260507181157 14 0 0.0 0.0 0.00 0.00 0.00 71 1011.6
20260507180257 15 0 0.0 0.0 0.00 0.00 0.00 71 1011.6
20260507175357 15 0 0.0 0.0 0.00 0.00 0.00 70 1011.6
20260507173557 15 0 0.0 0.0 0.00 0.00 0.00 70 1011.6
20260507172657 15 0 0.0 0.0 0.00 0.00 0.00 70 1011.6
20260507171756 16 0 0.0 0.0 0.00 0.00 0.00 69 1011.6
20260507165057 17 292 0.0 1.6 0.00 0.00 0.00 63 1011.6
20260507164156 17 0 0.0 0.0 0.00 0.00 0.00 61 1010.6
20260507163256 18 0 0.0 0.0 0.00 0.00 0.00 57 1010.6